Project,Study,Ord_Occ,Event_Num,Cast_ID,Date_Time_UTC,Date_Time_PST,Lat_Dec,Lon_Dec,Sta_ID,Line,Sta,Depth,Pressure,PrQ,Temp1,Temp1Q,Temp2,Temp2Q,TempAve,Salt1,Salt1Q,Salt1_Corr,Salt2,Salt2Q,Salt2_Corr,SaltAve_Corr,Ox1,Ox1Q,Ox1_CruiseCorr,Ox1_StaCorr,Ox2,Ox2Q,Ox2_CruiseCorr,Ox2_StaCorr,OxAve_StaCorr,Ox1uM,Ox1uM_CruiseCorr,Ox1uM_StaCorr,Ox2uM,Ox2uM_CruiseCorr,Ox2uM_StaCorr,OxAveuM_StaCorr,FluorV,FluorQ,EstChl_CruiseCorr,EstChl_StaCorr,ISUSV,ISUSQ,EstNO3_CruiseCorr,EstNO3_StaCorr,SigThetaTS1,SigThetaTS1Q,SigThetaTS2,SigThetaTS2Q,BAT,XMiss,TransQ,pH,pHQ,SPAR,SPARQ,PAR,PARQ,PoT1,PoT2,DynHt,SVA,OxSat1,OxSat2,BTL_Depth,BTL_Temp,SaltB,OxB,OxBuM,Chl-a,Phaeo,NO3,NO2,NH4,PO4,SIL
CalCOFI,2105SH,014,,2105_014u,07-May-2021 01:35:53,06-May-2021 17:35:53,31.08388,-122.66544,090.0 100.0,090.0,100.0,515.000,519.225,,5.9234,,5.9264,,5.9249,34.2696,,34.2708,34.2689,,34.2708,34.2708,0.3165,,0.3971,0.4381,0.3251,,0.3961,0.4381,0.4381,13.765,16.8887,17.6438,14.137,19.9947,17.8053,17.7246,0.0354,,,,0.6000,,0.0000,,26.9908,,26.9899,,,,,,,,,,,5.8785,5.8815,0.9709,112.838,4.551,4.675,,,,,,,,,,,,
CalCOFI,2105SH,014,,2105_014u,07-May-2021 01:36:17,06-May-2021 17:36:17,31.08387,-122.66549,090.0 100.0,090.0,100.0,514.000,518.216,,5.9206,,5.9206,,5.9206,34.2688,,34.2700,34.2694,,34.2713,34.2707,0.3165,,0.3971,0.4381,0.3253,,0.3963,0.4383,0.4382,13.765,16.8887,17.6438,14.148,19.9947,17.8167,17.7303,0.0357,,,,0.6008,,0.0000,,26.9905,,26.9910,,,,,,,,,,,5.8758,5.8758,0.9732,112.853,4.551,4.678,514,5.921,34.2698,0.438,19.12,,,41.73,0.00,0.00,3.22,76.68
CalCOFI,2105SH,014,,2105_014u,07-May-2021 01:36:36,06-May-2021 17:36:36,31.08384,-122.66556,090.0 100.0,090.0,100.0,513.000,517.206,,5.9198,,5.9200,,5.9199,34.2677,,34.2689,34.2686,,34.2705,34.2697,0.3169,,0.3975,0.4386,0.3254,,0.3964,0.4384,0.4385,13.779,16.9034,17.6585,14.152,20.0099,17.8209,17.7397,0.0358,,,,0.6005,,0.0000,,26.9897,,26.9904,,,,,,,,,,,5.8751,5.8753,0.9749,112.909,4.556,4.679,,,,,,,,,,,,
CalCOFI,2105SH,014,,2105_014u,07-May-2021 01:36:37,06-May-2021 17:36:37,31.08384,-122.66556,090.0 100.0,090.0,100.0,512.000,516.197,,5.9338,,5.9219,,5.9279,34.2660,,34.2672,34.2690,,34.2709,34.2691,0.3162,,0.3968,0.4378,0.3254,,0.3964,0.4384,0.4381,13.752,16.8751,17.6302,14.148,19.9807,17.8167,17.7235,0.0357,,,,0.6004,,0.0000,,26.9866,,26.9904,,,,,,,,,,,5.8891,5.8773,0.9749,113.207,4.548,4.678,,,,,,,,,,,,
CalCOFI,2105SH,014,,2105_014u,07-May-2021 01:36:38,06-May-2021 17:36:38,31.08384,-122.66556,090.0 100.0,090.0,100.0,511.000,515.187,,5.9605,,5.9319,,5.9462,34.2652,,34.2664,34.2704,,34.2723,34.2694,0.3088,,0.3890,0.4301,0.3187,,0.3895,0.4314,0.4308,13.430,16.5385,17.2933,13.858,19.6329,17.5166,17.4050,0.0356,,,,0.6002,,0.0000,,26.9826,,26.9903,,,,,,,,,,,5.9158,5.8873,0.9749,113.601,4.444,4.583,,,,,,,,,,,,
CalCOFI,2105SH,014,,2105_014u,07-May-2021 01:36:38,06-May-2021 17:36:38,31.08384,-122.66556,090.0 100.0,090.0,100.0,510.000,514.178,,5.9702,,5.9595,,5.9649,34.2648,,34.2660,34.2703,,34.2722,34.2691,0.3051,,0.3852,0.4262,0.3121,,0.3827,0.4246,0.4254,13.269,16.3702,17.1249,13.573,19.4591,17.2216,17.1733,0.0361,,,,0.6001,,0.0000,,26.9811,,26.9867,,,,,,,,,,,5.9255,5.9149,0.9749,113.740,4.392,4.492,,,,,,,,,,,,
CalCOFI,2105SH,014,,2105_014u,07-May-2021 01:36:39,06-May-2021 17:36:39,31.08384,-122.66556,090.0 100.0,090.0,100.0,509.000,513.168,,6.0058,,5.9968,,6.0013,34.2719,,34.2731,34.2697,,34.2716,34.2724,0.3070,,0.3872,0.4282,0.3100,,0.3805,0.4224,0.4253,13.352,16.4570,17.2117,13.482,19.5487,17.1274,17.1696,0.0354,,,,0.5999,,0.0000,,26.9822,,26.9816,,,,,,,,,,,5.9611,5.9521,0.9749,113.665,4.423,4.465,,,,,,,,,,,,
CalCOFI,2105SH,014,,2105_014u,07-May-2021 01:36:40,06-May-2021 17:36:40,31.08384,-122.66556,090.0 100.0,090.0,100.0,508.000,512.159,,6.0349,,6.0295,,6.0322,34.2757,,34.2769,34.2800,,34.2819,34.2794,0.2993,,0.3791,0.4201,0.3014,,0.3716,0.4135,0.4168,13.014,16.1036,16.8581,13.105,19.1837,16.7372,16.7977,0.0352,,,,0.5996,,0.0000,,26.9815,,26.9856,,,,,,,,,,,5.9902,5.9848,0.9749,113.752,4.314,4.344,,,,,,,,,,,,
CalCOFI,2105SH,014,,2105_014u,07-May-2021 01:36:41,06-May-2021 17:36:41,31.08384,-122.66556,090.0 100.0,090.0,100.0,507.000,511.149,,6.0887,,6.0739,,6.0813,34.2811,,34.2823,34.2892,,34.2911,34.2867,0.2955,,0.3751,0.4161,0.3040,,0.3743,0.4162,0.4162,12.852,15.9343,16.6886,13.222,19.0087,16.8583,16.7735,0.0357,,,,0.5993,,0.0000,,26.9790,,26.9873,,,,,,,,,,,6.0438,6.0291,0.9749,114.037,4.266,4.388,,,,,,,,,,,,
CalCOFI,2105SH,014,,2105_014u,07-May-2021 01:36:42,06-May-2021 17:36:42,31.08384,-122.66556,090.0 100.0,090.0,100.0,506.000,510.140,,6.1384,,6.1379,,6.1382,34.2896,,34.2908,34.2940,,34.2959,34.2934,0.2964,,0.3761,0.4171,0.2994,,0.3695,0.4114,0.4143,12.891,15.9751,16.7294,13.019,19.0508,16.6482,16.6888,0.0353,,,,0.5989,,0.0000,,26.9794,,26.9830,,,,,,,,,,,6.0934,6.0929,0.9749,114.050,4.284,4.327,,,,,,,,,,,,
CalCOFI,2105SH,014,,2105_014u,07-May-2021 01:36:43,06-May-2021 17:36:43,31.08384,-122.66557,090.0 100.0,090.0,100.0,505.000,509.131,,6.1177,,6.1296,,6.1237,34.2901,,34.2913,34.2910,,34.2929,34.2921,0.2913,,0.3707,0.4117,0.3039,,0.3742,0.4161,0.4139,12.667,15.7409,16.4950,13.214,18.8089,16.8500,16.6725,0.0361,,,,0.5985,,0.0000,,26.9825,,26.9816,,,,,,,,,,,6.0729,6.0847,0.9749,113.723,4.208,4.391,,,,,,,,,,,,
CalCOFI,2105SH,014,,2105_014u,07-May-2021 01:36:44,06-May-2021 17:36:44,31.08384,-122.66558,090.0 100.0,090.0,100.0,504.000,508.121,,6.1185,,6.1171,,6.1178,34.2880,,34.2892,34.2912,,34.2931,34.2912,0.2943,,0.3739,0.4149,0.3061,,0.3765,0.4183,0.4166,12.798,15.8778,16.6321,13.311,18.9504,16.9504,16.7913,0.0353,,,,0.5982,,0.0000,,26.9807,,26.9834,,,,,,,,,,,6.0738,6.0724,0.9749,113.877,4.251,4.422,,,,,,,,,,,,
CalCOFI,2105SH,014,,2105_014u,07-May-2021 01:36:45,06-May-2021 17:36:45,31.08384,-122.66558,090.0 100.0,090.0,100.0,503.000,507.112,,6.1189,,6.1092,,6.1141,34.2872,,34.2884,34.2905,,34.2924,34.2904,0.2964,,0.3761,0.4171,0.3061,,0.3765,0.4183,0.4177,12.892,15.9761,16.7304,13.311,19.0519,16.9504,16.8404,0.0363,,,,0.5979,,0.0000,,26.9799,,26.9838,,,,,,,,,,,6.0742,6.0646,0.9749,113.933,4.283,4.421,,,,,,,,,,,,
CalCOFI,2105SH,014,,2105_014u,07-May-2021 01:36:46,06-May-2021 17:36:46,31.08384,-122.66558,090.0 100.0,090.0,100.0,502.000,506.102,,6.1438,,6.1194,,6.1316,34.2911,,34.2923,34.2922,,34.2941,34.2932,0.2962,,0.3759,0.4169,0.3060,,0.3764,0.4182,0.4176,12.880,15.9636,16.7179,13.305,19.0389,16.9442,16.8311,0.0366,,,,0.5976,,0.0000,,26.9799,,26.9838,,,,,,,,,,,6.0992,6.0749,0.9749,113.956,4.281,4.420,,,,,,,,,,,,
CalCOFI,2105SH,014,,2105_014u,07-May-2021 01:36:47,06-May-2021 17:36:47,31.08384,-122.66558,090.0 100.0,090.0,100.0,501.000,505.093,,6.1442,,6.1501,,6.1472,34.2908,,34.2920,34.2938,,34.2957,34.2939,0.2950,,0.3746,0.4156,0.3023,,0.3725,0.4144,0.4150,12.827,15.9081,16.6624,13.148,18.9817,16.7817,16.7221,0.0353,,,,0.5972,,0.0000,,26.9796,,26.9812,,,,,,,,,,,6.0997,6.1055,0.9749,113.969,4.264,4.371,,,,,,,,,,,,
CalCOFI,2105SH,014,,2105_014u,07-May-2021 01:36:47,06-May-2021 17:36:47,31.08384,-122.66558,090.0 100.0,090.0,100.0,500.000,504.084,,6.1666,,6.1539,,6.1603,34.2911,,34.2923,34.2938,,34.2957,34.2940,0.2914,,0.3708,0.4118,0.2942,,0.3641,0.4060,0.4089,12.675,15.7492,16.5034,12.795,18.8175,16.4163,16.4599,0.0356,,,,0.5969,,0.0000,,26.9770,,26.9807,,,,,,,,,,,6.1221,6.1094,0.9749,114.229,4.215,4.254,,,,,,,,,,,,
CalCOFI,2105SH,014,,2105_014u,07-May-2021 01:36:48,06-May-2021 17:36:48,31.08384,-122.66558,090.0 100.0,090.0,100.0,499.000,503.074,,6.1606,,6.1616,,6.1611,34.2928,,34.2940,34.2956,,34.2975,34.2958,0.2893,,0.3686,0.4096,0.2989,,0.3690,0.4109,0.4103,12.583,15.6531,16.4071,12.997,18.7182,16.6254,16.5163,0.0354,,,,0.5965,,0.0000,,26.9790,,26.9811,,,,,,,,,,,6.1161,6.1172,0.9749,114.014,4.184,4.322,,,,,,,,,,,,
CalCOFI,2105SH,014,,2105_014u,07-May-2021 01:36:49,06-May-2021 17:36:49,31.08384,-122.66558,090.0 100.0,090.0,100.0,498.000,502.065,,6.1510,,6.1544,,6.1527,34.2920,,34.2932,34.2942,,34.2961,34.2947,0.2862,,0.3654,0.4064,0.3013,,0.3715,0.4134,0.4099,12.446,15.5098,16.2638,13.104,18.5702,16.7362,16.5000,0.0357,,,,0.5962,,0.0000,,26.9796,,26.9809,,,,,,,,,,,6.1067,6.1101,0.9749,113.932,4.138,4.357,,,,,,,,,,,,
CalCOFI,2105SH,014,,2105_014u,07-May-2021 01:36:50,06-May-2021 17:36:50,31.08384,-122.66558,090.0 100.0,090.0,100.0,497.000,501.055,,6.1619,,6.1550,,6.1585,34.2875,,34.2887,34.2964,,34.2983,34.2935,0.2912,,0.3706,0.4116,0.3012,,0.3714,0.4132,0.4124,12.663,15.7367,16.4908,13.100,18.8046,16.7320,16.6114,0.0344,,,,0.5960,,0.0000,,26.9746,,26.9826,,,,,,,,,,,6.1176,6.1108,0.9749,114.398,4.211,4.356,,,,,,,,,,,,
CalCOFI,2105SH,014,,2105_014u,07-May-2021 01:36:50,06-May-2021 17:36:50,31.08384,-122.66558,090.0 100.0,090.0,100.0,496.000,500.046,,6.1818,,6.1733,,6.1776,34.2893,,34.2905,34.2961,,34.2980,34.2943,0.2917,,0.3712,0.4121,0.3009,,0.3711,0.4129,0.4125,12.684,15.7587,16.5128,13.083,18.8273,16.7144,16.6136,0.0351,,,,0.5958,,0.0000,,26.9735,,26.9800,,,,,,,,,,,6.1376,6.1291,0.9749,114.512,4.220,4.352,,,,,,,,,,,,
CalCOFI,2105SH,014,,2105_014u,07-May-2021 01:36:51,06-May-2021 17:36:51,31.08384,-122.66558,090.0 100.0,090.0,100.0,495.000,499.037,,6.2077,,6.2407,,6.2242,34.2896,,34.2908,34.2981,,34.3000,34.2954,0.2912,,0.3706,0.4116,0.3001,,0.3702,0.4121,0.4119,12.662,15.7357,16.4898,13.051,18.8035,16.6813,16.5856,0.0350,,,,0.5956,,0.0000,,26.9705,,26.9730,,,,,,,,,,,6.1635,6.1964,0.9749,114.816,4.215,4.348,,,,,,,,,,,,
CalCOFI,2105SH,014,,2105_014u,07-May-2021 01:36:52,06-May-2021 17:36:52,31.08384,-122.66560,090.0 100.0,090.0,100.0,494.000,498.027,,6.2711,,6.2776,,6.2744,34.2967,,34.2979,34.3010,,34.3029,34.3004,0.2904,,0.3698,0.4108,0.2971,,0.3671,0.4090,0.4099,12.630,15.7022,16.4563,12.919,18.7689,16.5447,16.5005,0.0353,,,,0.5954,,0.0000,,26.9679,,26.9705,,,,,,,,,,,6.2267,6.2332,0.9749,115.117,4.211,4.308,,,,,,,,,,,,
CalCOFI,2105SH,014,,2105_014u,07-May-2021 01:36:53,06-May-2021 17:36:53,31.08384,-122.66560,090.0 100.0,090.0,100.0,493.000,497.018,,6.3012,,6.2895,,6.2954,34.2977,,34.2989,34.3024,,34.3043,34.3016,0.2902,,0.3696,0.4106,0.3007,,0.3709,0.4127,0.4117,12.618,15.6897,16.4437,13.076,18.7560,16.7072,16.5755,0.0363,,,,0.5952,,0.0000,,26.9648,,26.9701,,,,,,,,,,,6.2568,6.2452,0.9749,115.431,4.209,4.361,,,,,,,,,,,,
CalCOFI,2105SH,014,,2105_014u,07-May-2021 01:36:54,06-May-2021 17:36:54,31.08384,-122.66560,090.0 100.0,090.0,100.0,492.000,496.009,,6.3238,,6.3114,,6.3176,34.2986,,34.2998,34.3030,,34.3049,34.3024,0.2899,,0.3693,0.4103,0.3005,,0.3707,0.4125,0.4114,12.608,15.6792,16.4333,13.068,18.7452,16.6989,16.5661,0.0354,,,,0.5950,,0.0000,,26.9626,,26.9677,,,,,,,,,,,6.2794,6.2671,0.9749,115.654,4.209,4.361,,,,,,,,,,,,
CalCOFI,2105SH,014,,2105_014u,07-May-2021 01:36:55,06-May-2021 17:36:55,31.08384,-122.66560,090.0 100.0,090.0,100.0,491.000,494.999,,6.3050,,6.3170,,6.3110,34.3008,,34.3020,34.3018,,34.3037,34.3029,0.2901,,0.3695,0.4105,0.2997,,0.3698,0.4117,0.4111,12.613,15.6844,16.4385,13.035,18.7506,16.6647,16.5516,0.0358,,,,0.5950,,0.0000,,26.9667,,26.9660,,,,,,,,,,,6.2608,6.2727,0.9749,115.226,4.208,4.350,,,,,,,,,,,,
CalCOFI,2105SH,014,,2105_014u,07-May-2021 01:36:56,06-May-2021 17:36:56,31.08384,-122.66560,090.0 100.0,090.0,100.0,490.000,493.990,,6.3038,,6.3125,,6.3082,34.2986,,34.2998,34.3012,,34.3031,34.3015,0.2907,,0.3701,0.4111,0.3015,,0.3717,0.4136,0.4124,12.642,15.7147,16.4688,13.110,18.7819,16.7424,16.6056,0.0350,,,,0.5950,,0.0000,,26.9652,,26.9661,,,,,,,,,,,6.2597,6.2683,0.9749,115.355,4.218,4.375,,,,,,,,,,,,
CalCOFI,2105SH,014,,2105_014u,07-May-2021 01:36:57,06-May-2021 17:36:57,31.08384,-122.66561,090.0 100.0,090.0,100.0,489.000,492.981,,6.3041,,6.3072,,6.3057,34.2983,,34.2995,34.3014,,34.3033,34.3014,0.2982,,0.3780,0.4190,0.3103,,0.3808,0.4227,0.4209,12.970,16.0576,16.8120,13.495,19.1361,17.1408,16.9764,0.0354,,,,0.5951,,0.0000,,26.9649,,26.9669,,,,,,,,,,,6.2600,6.2632,0.9749,115.372,4.327,4.503,,,,,,,,,,,,
CalCOFI,2105SH,014,,2105_014u,07-May-2021 01:36:58,06-May-2021 17:36:58,31.08383,-122.66562,090.0 100.0,090.0,100.0,488.000,491.971,,6.3027,,6.3121,,6.3074,34.2985,,34.2997,34.2986,,34.3005,34.3001,0.2976,,0.3773,0.4183,0.3066,,0.3770,0.4189,0.4186,12.943,16.0294,16.7838,13.331,19.1070,16.9711,16.8775,0.0362,,,,0.5952,,0.0000,,26.9652,,26.9641,,,,,,,,,,,6.2587,6.2681,0.9749,115.326,4.318,4.449,,,,,,,,,,,,
CalCOFI,2105SH,014,,2105_014u,07-May-2021 01:36:59,06-May-2021 17:36:59,31.08382,-122.66562,090.0 100.0,090.0,100.0,487.000,490.962,,6.3055,,6.3097,,6.3076,34.2958,,34.2970,34.2952,,34.2971,34.2971,0.2999,,0.3797,0.4207,0.3112,,0.3817,0.4236,0.4222,13.043,16.1340,16.8884,13.533,19.2150,17.1802,17.0343,0.0360,,,,0.5953,,0.0000,,26.9627,,26.9617,,,,,,,,,,,6.2616,6.2659,0.9749,115.545,4.352,4.516,,,,,,,,,,,,
CalCOFI,2105SH,014,,2105_014u,07-May-2021 01:37:00,06-May-2021 17:37:00,31.08382,-122.66562,090.0 100.0,090.0,100.0,486.000,489.953,,6.3060,,6.3093,,6.3077,34.2948,,34.2960,34.2957,,34.2976,34.2968,0.3051,,0.3852,0.4262,0.3158,,0.3865,0.4284,0.4273,13.266,16.3671,17.1217,13.735,19.4558,17.3893,17.2555,0.0360,,,,0.5954,,0.0000,,26.9619,,26.9621,,,,,,,,,,,6.2622,6.2655,0.9749,115.613,4.426,4.583,,,,,,,,,,,,
CalCOFI,2105SH,014,,2105_014u,07-May-2021 01:37:01,06-May-2021 17:37:01,31.08382,-122.66562,090.0 100.0,090.0,100.0,485.000,488.943,,6.3097,,6.3215,,6.3156,34.2937,,34.2949,34.2973,,34.2992,34.2971,0.3013,,0.3812,0.4222,0.3094,,0.3799,0.4218,0.4220,13.104,16.1977,16.9522,13.454,19.2809,17.0984,17.0253,0.0360,,,,0.5956,,0.0000,,26.9605,,26.9617,,,,,,,,,,,6.2660,6.2778,0.9749,115.732,4.373,4.491,,,,,,,,,,,,
CalCOFI,2105SH,014,,2105_014u,07-May-2021 01:37:01,06-May-2021 17:37:01,31.08382,-122.66562,090.0 100.0,090.0,100.0,484.000,487.934,,6.3537,,6.3831,,6.3684,34.2894,,34.2906,34.2986,,34.3005,34.2956,0.3049,,0.3850,0.4260,0.3105,,0.3810,0.4229,0.4245,13.261,16.3618,17.1165,13.505,19.4504,17.1512,17.1339,0.0355,,,,0.5958,,0.0000,,26.9514,,26.9548,,,,,,,,,,,6.3099,6.3393,0.9749,116.622,4.429,4.514,,,,,,,,,,,,
CalCOFI,2105SH,014,,2105_014u,07-May-2021 01:37:02,06-May-2021 17:37:02,31.08382,-122.66562,090.0 100.0,090.0,100.0,483.000,486.925,,6.3976,,6.3881,,6.3929,34.2927,,34.2939,34.2987,,34.3006,34.2973,0.3073,,0.3875,0.4285,0.3186,,0.3894,0.4313,0.4299,13.362,16.4674,17.2222,13.855,19.5595,17.5135,17.3679,0.0364,,,,0.5961,,0.0000,,26.9483,,26.9542,,,,,,,,,,,6.3538,6.3443,0.9749,116.953,4.468,4.632,,,,,,,,,,,,
CalCOFI,2105SH,014,,2105_014u,07-May-2021 01:37:03,06-May-2021 17:37:03,31.08382,-122.66562,090.0 100.0,090.0,100.0,482.000,485.915,,6.3889,,6.4004,,6.3947,34.2952,,34.2964,34.2980,,34.2999,34.2982,0.3072,,0.3874,0.4284,0.3134,,0.3840,0.4259,0.4272,13.359,16.4643,17.2190,13.630,19.5563,17.2806,17.2498,0.0358,,,,0.5965,,0.0000,,26.9514,,26.9520,,,,,,,,,,,6.3453,6.3567,0.9749,116.637,4.466,4.558,,,,,,,,,,,,
CalCOFI,2105SH,014,,2105_014u,07-May-2021 01:37:04,06-May-2021 17:37:04,31.08382,-122.66562,090.0 100.0,090.0,100.0,481.000,484.906,,6.4391,,6.4210,,6.4301,34.2929,,34.2941,34.2984,,34.3003,34.2972,0.3125,,0.3929,0.4339,0.3186,,0.3894,0.4313,0.4326,13.588,16.7037,17.4586,13.853,19.8036,17.5114,17.4850,0.0357,,,,0.5969,,0.0000,,26.9430,,26.9497,,,,,,,,,,,6.3953,6.3773,0.9749,117.469,4.547,4.635,,,,,,,,,,,,
CalCOFI,2105SH,014,,2105_014u,07-May-2021 01:37:05,06-May-2021 17:37:05,31.08382,-122.66562,090.0 100.0,090.0,100.0,480.000,483.897,,6.4253,,6.4401,,6.4327,34.2959,,34.2971,34.2963,,34.2982,34.2977,0.3074,,0.3876,0.4286,0.3215,,0.3924,0.4343,0.4315,13.366,16.4716,17.2264,13.982,19.5638,17.6449,17.4357,0.0358,,,,0.5974,,0.0000,,26.9472,,26.9456,,,,,,,,,,,6.3817,6.3965,0.9749,117.045,4.472,4.680,,,,,,,,,,,,
CalCOFI,2105SH,014,,2105_014u,07-May-2021 01:37:06,06-May-2021 17:37:06,31.08382,-122.66562,090.0 100.0,090.0,100.0,479.000,482.888,,6.4174,,6.4313,,6.4244,34.2945,,34.2957,34.2961,,34.2980,34.2969,0.3144,,0.3949,0.4359,0.3202,,0.3911,0.4330,0.4345,13.671,16.7905,17.5455,13.927,19.8932,17.5880,17.5668,0.0345,,,,0.5978,,0.0000,,26.9471,,26.9466,,,,,,,,,,,6.3739,6.3877,0.9749,117.027,4.573,4.660,,,,,,,,,,,,
CalCOFI,2105SH,014,,2105_014u,07-May-2021 01:37:07,06-May-2021 17:37:07,31.08382,-122.66563,090.0 100.0,090.0,100.0,478.000,481.878,,6.4288,,6.4291,,6.4290,34.2918,,34.2930,34.2957,,34.2976,34.2953,0.3167,,0.3973,0.4383,0.3261,,0.3972,0.4391,0.4387,13.771,16.8950,17.6501,14.183,20.0012,17.8529,17.7515,0.0359,,,,0.5983,,0.0000,,26.9434,,26.9465,,,,,,,,,,,6.3854,6.3857,0.9749,117.372,4.608,4.746,,,,,,,,,,,,
CalCOFI,2105SH,014,,2105_014u,07-May-2021 01:37:08,06-May-2021 17:37:08,31.08382,-122.66564,090.0 100.0,090.0,100.0,477.000,480.869,,6.4346,,6.4283,,6.4315,34.2902,,34.2914,34.2920,,34.2939,34.2927,0.3205,,0.4013,0.4423,0.3253,,0.3963,0.4383,0.4403,13.937,17.0685,17.8238,14.149,20.1805,17.8178,17.8208,0.0363,,,,0.5989,,0.0000,,26.9414,,26.9437,,,,,,,,,,,6.3912,6.3849,0.9749,117.551,4.664,4.734,,,,,,,,,,,,
CalCOFI,2105SH,014,,2105_014u,07-May-2021 01:37:10,06-May-2021 17:37:10,31.08382,-122.66564,090.0 100.0,090.0,100.0,476.000,479.860,,6.4321,,6.4289,,6.4305,34.2919,,34.2931,34.2911,,34.2930,34.2931,0.3157,,0.3963,0.4373,0.3303,,0.4015,0.4435,0.4404,13.730,16.8521,17.6072,14.364,19.9569,18.0403,17.8238,0.0359,,,,0.5996,,0.0000,,26.9430,,26.9428,,,,,,,,,,,6.3888,6.3856,0.9749,117.382,4.594,4.806,,,,,,,,,,,,
CalCOFI,2105SH,014,,2105_014u,07-May-2021 01:37:11,06-May-2021 17:37:11,31.08382,-122.66564,090.0 100.0,090.0,100.0,475.000,478.850,,6.4319,,6.4302,,6.4311,34.2901,,34.2913,34.2912,,34.2931,34.2922,0.3178,,0.3985,0.4395,0.3325,,0.4038,0.4458,0.4427,13.819,16.9452,17.7003,14.459,20.0531,18.1386,17.9195,0.0355,,,,0.6002,,0.0000,,26.9417,,26.9428,,,,,,,,,,,6.3887,6.3870,0.9749,117.493,4.624,4.838,,,,,,,,,,,,
CalCOFI,2105SH,014,,2105_014u,07-May-2021 01:37:11,06-May-2021 17:37:11,31.08382,-122.66564,090.0 100.0,090.0,100.0,474.000,477.841,,6.4269,,6.4289,,6.4279,34.2886,,34.2898,34.2884,,34.2903,34.2901,0.3255,,0.4065,0.4476,0.3363,,0.4077,0.4497,0.4487,14.156,17.2975,18.0529,14.625,20.4170,18.3104,18.1817,0.0355,,,,0.6007,,0.0000,,26.9411,,26.9407,,,,,,,,,,,6.3838,6.3858,0.9749,117.526,4.736,4.893,,,,,,,,,,,,
CalCOFI,2105SH,014,,2105_014u,07-May-2021 01:37:12,06-May-2021 17:37:12,31.08382,-122.66563,090.0 100.0,090.0,100.0,473.000,476.832,,6.4268,,6.4298,,6.4283,34.2882,,34.2894,34.2867,,34.2886,34.2890,0.3262,,0.4072,0.4483,0.3383,,0.4098,0.4518,0.4501,14.184,17.3268,18.0822,14.713,20.4473,18.4015,18.2419,0.0360,,,,0.6012,,0.0000,,26.9408,,26.9392,,,,,,,,,,,6.3838,6.3868,0.9749,117.540,4.745,4.923,,,,,,,,,,,,
CalCOFI,2105SH,014,,2105_014u,07-May-2021 01:37:13,06-May-2021 17:37:13,31.08382,-122.66562,090.0 100.0,090.0,100.0,472.000,475.823,,6.4445,,6.4566,,6.4506,34.2848,,34.2860,34.2874,,34.2893,34.2877,0.3294,,0.4106,0.4517,0.3404,,0.4120,0.4540,0.4529,14.323,17.4721,18.2277,14.802,20.5974,18.4936,18.3607,0.0364,,,,0.6016,,0.0000,,26.9358,,26.9363,,,,,,,,,,,6.4016,6.4136,0.9749,118.020,4.794,4.956,,,,,,,,,,,,
CalCOFI,2105SH,014,,2105_014u,07-May-2021 01:37:14,06-May-2021 17:37:14,31.08382,-122.66562,090.0 100.0,090.0,100.0,471.000,474.813,,6.4515,,6.4632,,6.4574,34.2858,,34.2870,34.2865,,34.2884,34.2877,0.3268,,0.4079,0.4489,0.3427,,0.4144,0.4564,0.4527,14.213,17.3571,18.1126,14.905,20.4786,18.6002,18.3564,0.0365,,,,0.6022,,0.0000,,26.9356,,26.9347,,,,,,,,,,,6.4086,6.4203,0.9749,118.024,4.758,4.991,,,,,,,,,,,,
CalCOFI,2105SH,014,,2105_014u,07-May-2021 01:37:15,06-May-2021 17:37:15,31.08382,-122.66562,090.0 100.0,090.0,100.0,470.000,473.804,,6.4512,,6.4606,,6.4559,34.2858,,34.2870,34.2870,,34.2889,34.2880,0.3315,,0.4128,0.4539,0.3366,,0.4081,0.4500,0.4520,14.414,17.5672,18.3229,14.641,20.6957,18.3270,18.3250,0.0357,,,,0.6029,,0.0000,,26.9357,,26.9354,,,,,,,,,,,6.4084,6.4178,0.9749,118.004,4.825,4.902,,,,,,,,,,,,
CalCOFI,2105SH,014,,2105_014u,07-May-2021 01:37:16,06-May-2021 17:37:16,31.08382,-122.66563,090.0 100.0,090.0,100.0,469.000,472.795,,6.4635,,6.4647,,6.4641,34.2838,,34.2850,34.2862,,34.2881,34.2866,0.3312,,0.4125,0.4535,0.3362,,0.4076,0.4496,0.4516,14.402,17.5547,18.3103,14.622,20.6827,18.3073,18.3088,0.0363,,,,0.6036,,0.0000,,26.9325,,26.9342,,,,,,,,,,,6.4208,6.4220,0.9749,118.306,4.823,4.896,,,,,,,,,,,,
CalCOFI,2105SH,014,,2105_014u,07-May-2021 01:37:18,06-May-2021 17:37:18,31.08382,-122.66564,090.0 100.0,090.0,100.0,468.000,471.786,,6.4652,,6.4685,,6.4669,34.2854,,34.2866,34.2856,,34.2875,34.2871,0.3298,,0.4110,0.4521,0.3436,,0.4153,0.4573,0.4547,14.341,17.4909,18.2465,14.944,20.6168,18.6406,18.4436,0.0356,,,,0.6042,,0.0000,,26.9335,,26.9332,,,,,,,,,,,6.4225,6.4258,0.9749,118.196,4.802,5.005,,,,,,,,,,,,
CalCOFI,2105SH,014,,2105_014u,07-May-2021 01:37:18,06-May-2021 17:37:18,31.08382,-122.66564,090.0 100.0,090.0,100.0,467.000,470.776,,6.4597,,6.4602,,6.4600,34.2849,,34.2861,34.2856,,34.2875,34.2868,0.3359,,0.4174,0.4585,0.3490,,0.4209,0.4629,0.4607,14.609,17.7710,18.5269,15.179,20.9063,18.8838,18.7054,0.0364,,,,0.6047,,0.0000,,26.9338,,26.9343,,,,,,,,,,,6.4172,6.4177,0.9749,118.145,4.891,5.082,,,,,,,,,,,,
CalCOFI,2105SH,014,,2105_014u,07-May-2021 01:37:19,06-May-2021 17:37:19,31.08382,-122.66564,090.0 100.0,090.0,100.0,466.000,469.767,,6.4705,,6.4663,,6.4684,34.2820,,34.2832,34.2859,,34.2878,34.2855,0.3407,,0.4224,0.4635,0.3483,,0.4202,0.4622,0.4629,14.815,17.9864,18.7425,15.145,21.1288,18.8486,18.7956,0.0364,,,,0.6051,,0.0000,,26.9301,,26.9337,,,,,,,,,,,6.4281,6.4239,0.9749,118.491,4.961,5.072,,,,,,,,,,,,
CalCOFI,2105SH,014,,2105_014u,07-May-2021 01:37:20,06-May-2021 17:37:20,31.08382,-122.66566,090.0 100.0,090.0,100.0,465.000,468.758,,6.5110,,6.4962,,6.5036,34.2811,,34.2823,34.2858,,34.2877,34.2850,0.3431,,0.4249,0.4660,0.3514,,0.4234,0.4654,0.4657,14.919,18.0951,18.8513,15.283,21.2411,18.9915,18.9214,0.0357,,,,0.6056,,0.0000,,26.9241,,26.9297,,,,,,,,,,,6.4685,6.4537,0.9749,119.088,5.001,5.121,,,,,,,,,,,,
CalCOFI,2105SH,014,,2105_014u,07-May-2021 01:37:21,06-May-2021 17:37:21,31.08382,-122.66566,090.0 100.0,090.0,100.0,464.000,467.749,,6.5172,,6.5175,,6.5174,34.2826,,34.2838,34.2840,,34.2859,34.2849,0.3484,,0.4305,0.4716,0.3489,,0.4208,0.4628,0.4672,15.150,18.3366,19.0930,15.173,21.4906,18.8776,18.9853,0.0355,,,,0.6062,,0.0000,,26.9245,,26.9255,,,,,,,,,,,6.4747,6.4750,0.9749,119.043,5.079,5.087,,,,,,,,,,,,
CalCOFI,2105SH,014,,2105_014u,07-May-2021 01:37:22,06-May-2021 17:37:22,31.08382,-122.66566,090.0 100.0,090.0,100.0,463.000,466.739,,6.5046,,6.5143,,6.5095,34.2805,,34.2817,34.2839,,34.2858,34.2838,0.3558,,0.4382,0.4793,0.3590,,0.4313,0.4733,0.4763,15.472,18.6732,19.4299,15.610,21.8383,19.3299,19.3799,0.0354,,,,0.6070,,0.0000,,26.9244,,26.9258,,,,,,,,,,,6.4623,6.4720,0.9749,119.016,5.185,5.233,,,,,,,,,,,,
CalCOFI,2105SH,014,,2105_014u,07-May-2021 01:37:23,06-May-2021 17:37:23,31.08382,-122.66566,090.0 100.0,090.0,100.0,462.000,465.730,,6.4848,,6.5089,,6.4969,34.2744,,34.2756,34.2813,,34.2832,34.2794,0.3565,,0.4389,0.4801,0.3599,,0.4322,0.4742,0.4772,15.505,18.7077,19.4644,15.651,21.8740,19.3724,19.4184,0.0361,,,,0.6080,,0.0000,,26.9222,,26.9244,,,,,,,,,,,6.4426,6.4667,0.9749,119.190,5.194,5.246,,,,,,,,,,,,
CalCOFI,2105SH,014,,2105_014u,07-May-2021 01:37:24,06-May-2021 17:37:24,31.08382,-122.66566,090.0 100.0,090.0,100.0,461.000,464.721,,6.4838,,6.4908,,6.4873,34.2741,,34.2753,34.2773,,34.2792,34.2773,0.3579,,0.4404,0.4815,0.3660,,0.4385,0.4806,0.4811,15.565,18.7705,19.5272,15.919,21.9388,19.6497,19.5885,0.0358,,,,0.6090,,0.0000,,26.9221,,26.9236,,,,,,,,,,,6.4417,6.4488,0.9749,119.183,5.214,5.333,,,,,,,,,,,,
CalCOFI,2105SH,014,,2105_014u,07-May-2021 01:37:25,06-May-2021 17:37:25,31.08382,-122.66566,090.0 100.0,090.0,100.0,460.000,463.712,,6.4796,,6.4987,,6.4892,34.2731,,34.2743,34.2786,,34.2805,34.2774,0.3592,,0.4418,0.4829,0.3784,,0.4513,0.4935,0.4882,15.620,18.8279,19.5847,16.454,21.9982,20.2035,19.8941,0.0360,,,,0.6100,,0.0000,,26.9218,,26.9236,,,,,,,,,,,6.4377,6.4567,0.9749,119.188,5.232,5.514,,,,,,,,,,,,